Regional Weather Roundup
Issued by NWS

Home | Current Version | Previous Version | Graphics & Text | Print | Product List | Glossary On
Versions: 1 2 3 4 5 6 7 8 9 10 11 12 13 14 15 16 17 18 19 20 21 22 23 24 25 26 27 28 29 30 31 32 33 34 35 36 37 38 39 40 41 42 43 44 45 46 47 48 49 50
119
ASUS45 KSLC 192310
RWRUT

UTAH REGIONAL WEATHER ROUNDUP
NATIONAL WEATHER SERVICE SALT LAKE CITY UT
500 PM MDT TUE SEP 19 2017

UTZ001>011-023>025-200000-

NORTHERN UTAH

CITY           SKY/WX    TMP DP  RH WIND       PRES   REMARKS
BRIGHAM CITY   PTSUNNY   58  32  37 W3        29.92F
DUGWAY         MOSUNNY   67  27  22 N8        29.86F
HILL AFB       MOSUNNY   58  34  40 SW10      29.91F
LOGAN          PTSUNNY   54  39  57 N13       29.92R
OGDEN          MOSUNNY   60  34  37 N8        29.90F
SALT LAKE CITY PTSUNNY   62  35  36 N10       29.91F
TOOELE VALLEY  SUNNY     61  36  39 N10       29.90F
WENDOVER       CLOUDY    67  22  18 NW12G22   29.87S
HEBER CITY     PTSUNNY   54  34  47 N3        29.94S
WEST JORDAN    SUNNY     59  41  51 N10       29.92F

$$

UTZ011>015-024>027-200000-

CENTRAL/NORTHEAST UTAH

CITY           SKY/WX    TMP DP  RH WIND       PRES   REMARKS
PROVO AIRPORT  MOSUNNY   60  39  45 NW7       29.91F
MOAB/CANYONLAN SUNNY     82  33  17 SW18G30   29.70F
DELTA          SUNNY     70  32  24 N13G20    29.84S
PRICE          MOSUNNY   72  35  25 W15G24    29.82S
ROOSEVELT      SUNNY     66  32  28 W33G44    29.83R
VERNAL         CLOUDY    68  32  26 W29G38    29.78R

$$

UTZ013>016-019>022-027-200000-

SOUTHERN UTAH

CITY           SKY/WX    TMP DP  RH WIND       PRES   REMARKS
BRYCE CANYON   SUNNY     67  30  25 W20G31    30.00S
CEDAR CITY     MOSUNNY   74  34  23 S22G30    29.89S
MILFORD        MOSUNNY   78  35  21 SW25G35   29.82F
ST GEORGE      MOCLDY    87  37  17 W15       29.76F
HANKSVILLE     MOSUNNY   82  32  16 S20G30    29.73F
BLANDING         N/A     77  25  14 W18G29    29.94F

$$

REGIONAL REPORTS     COLORADO/ARIZONA

CITY           SKY/WX    TMP DP  RH WIND       PRES   REMARKS
CRAIG, CO      CLOUDY    47  31  53 NW17      29.96R
GRAND JUNCTION SUNNY     78  27  15 W25G31    29.74F
RIFLE, CO      SUNNY     78  24  13 SW31G41   29.76R
MONTROSE, CO   CLOUDY    76  21  12 W14G26    29.85S
CORTEZ, CO     SUNNY     79  17  10 SW22G32   29.90F
PAGE, AZ       SUNNY     87  31  13 SW8       29.77F
GRAND CANYON   SUNNY     74  23  15 SW22G39   30.02S
KINGMAN, AZ    SUNNY     85  38  18 S17G28    29.85F
FLAGSTAFF, AZ  SUNNY     69  22  16 SW21G30   30.08S

$$

REGIONAL REPORTS    NEVADA/IDAHO/WYOMING

CITY           SKY/WX    TMP DP  RH WIND       PRES   REMARKS
LAS VEGAS, NV  PTSUNNY   90  41  18 SW13G25   29.72F
ELY, NY        SUNNY     68  25  19 W14G21    29.90F
ELKO, NV       SUNNY     62  17  17 W20G31    29.94S
POCATELLO, ID  PTSUNNY   53  34  48 SW28G35   29.90F
BURLEY, ID     LGT RAIN  48  34  58 W16G31    29.91S
FORT BRIDGER,  MOCLDY    44  35  71 W16G23    29.99S
EVANSTON, WY   CLOUDY    44  34  67 SW16      29.97S
ROCK SPRINGS,  CLOUDY    42  31  64 SW18      29.93S

$$




USA.gov is the U.S. government's official web portal to all federal, state and local government web resources and services.